This is the latest recevied weather packets stored in our database for station/object DM4XI-13. If no packets are shown the sender has not sent any weather packets the latest 10 day(s).
| Time | Temp. | Humidity | Pressure | Rain* | Wind** | Luminosity | Snow |
|---|---|---|---|---|---|---|---|
| 1777742585 | 22.78° C | 29% | 1015.7 hPa | 0 mm | 0 m/s | 47 W/m² | - |
| 1777742524 | 22.78° C | 28% | 1015.7 hPa | 0 mm | 0.45 m/s, 191° | 48 W/m² | - |
| 1777742463 | 22.78° C | 28% | 1015.5 hPa | 0 mm | 0.45 m/s, 184° | 50 W/m² | - |
| 1777742402 | 22.78° C | 29% | 1015.6 hPa | 0 mm | 0 m/s | 51 W/m² | - |
| 1777742341 | 22.78° C | 28% | 1015.5 hPa | 0 mm | 0.45 m/s, 183° | 51 W/m² | - |
| 1777742280 | 22.78° C | 28% | 1015.5 hPa | 0 mm | 0 m/s | 52 W/m² | - |
| 1777742219 | 22.78° C | 28% | 1015.8 hPa | 0 mm | 0 m/s | 53 W/m² | - |
| 1777742158 | 22.78° C | 28% | 1015.6 hPa | 0 mm | 0 m/s | 53 W/m² | - |
| 1777742097 | 22.78° C | 29% | 1015.7 hPa | 0 mm | 0 m/s | 54 W/m² | - |
| 1777742036 | 22.78° C | 28% | 1015.6 hPa | 0 mm | 0.45 m/s, 193° | 55 W/m² | - |
| 1777741975 | 22.78° C | 29% | 1015.6 hPa | 0 mm | 0 m/s | 56 W/m² | - |
| 1777741914 | 22.78° C | 29% | 1015.7 hPa | 0 mm | 0 m/s | 57 W/m² | - |
| 1777741853 | 22.78° C | 29% | 1015.7 hPa | 0 mm | 0 m/s | 57 W/m² | - |
| 1777741792 | 22.78° C | 29% | 1015.7 hPa | 0 mm | 0.89 m/s, 189° | 58 W/m² | - |
| 1777741731 | 22.78° C | 29% | 1015.7 hPa | 0 mm | 0.45 m/s, 176° | 58 W/m² | - |
| 1777741670 | 22.78° C | 28% | 1015.6 hPa | 0 mm | 0.45 m/s, 178° | 59 W/m² | - |
| 1777741609 | 22.78° C | 28% | 1015.8 hPa | 0 mm | 0.89 m/s, 181° | 60 W/m² | - |
| 1777741548 | 23.33° C | 29% | 1015.6 hPa | 0 mm | 0.89 m/s, 195° | 63 W/m² | - |
| 1777741487 | 23.33° C | 28% | 1015.8 hPa | 0 mm | 0.89 m/s, 183° | 64 W/m² | - |
| 1777741427 | 23.33° C | 28% | 1015.7 hPa | 0 mm | 1.34 m/s, 174° | 67 W/m² | - |
| 1777741365 | 23.33° C | 28% | 1015.8 hPa | 0 mm | 0 m/s | 70 W/m² | - |
| 1777741304 | 23.33° C | 27% | 1015.6 hPa | 0 mm | 0.89 m/s, 181° | 70 W/m² | - |
| 1777741243 | 23.33° C | 28% | 1015.6 hPa | 0 mm | 0.45 m/s, 187° | 71 W/m² | - |
| 1777741182 | 23.33° C | 27% | 1015.7 hPa | 0 mm | 0.45 m/s, 194° | 70 W/m² | - |
| 1777741121 | 23.33° C | 28% | 1015.6 hPa | 0 mm | 0.45 m/s, 181° | 71 W/m² | - |
* Rain latest hour (hover to see other rain measurements)
** Current wind speed in m/s (hover to see current wind gust speed)